Temp_Advection
nan nan nan nan nan nan nan nan nan nan nan nan nan nan nan nan nan nan nan nan nan nan nan nan nan nan nan nan nan nan nan nan nan nan nan nan nan nan nan nan nan nan nan nan nan nan nan nan nan nan nan nan nan nan nan nan nan nan nan nan nan nan nan nan nan nan nan nan nan
nan -1 -0 -0 0 -0 -1 -1 -1 -0 0 0 -0 -0 -1 -1 -1 -1 -1 -1 0 0 -1 -2 -2 -2 -2 -3 -2 -2 -2 -2 -2 -2 -2 -2 -2 -2 -2 -2 -2 -2 -2 -3 -2 -2 -1 -1 -0 -0 -1 -1 -1 -1 -2 -1 0 -0 -1 -1 -2 -1 -1 -0 0 0 1 1 nan
nan -1 -1 -1 -0 -1 -1 -2 -2 -1 -1 -1 -1 -1 -1 -1 -1 -1 -1 -1 -0 0 -0 -1 -2 -2 -2 -3 -2 -2 -1 -2 -2 -2 -2 -2 -2 -1 -1 -2 -2 -2 -2 -2 -2 -2 -1 -1 -0 -1 -1 -1 -1 -0 -0 -0 -1 -1 -1 -1 -1 -1 -1 -0 0 1 1 1 nan
nan -1 -1 -1 -1 -1 -1 -1 -2 -2 -2 -2 -2 -1 -1 -0 -0 -0 -0 -1 -1 -0 -0 -1 -2 -2 -2 -2 -2 -1 -1 -1 -1 -1 -2 -2 -1 -1 -1 -1 -2 -2 -2 -2 -2 -1 -1 -0 -0 -1 -1 -1 -0 -0 -0 -0 -1 -1 -1 -1 -2 -2 -2 -0 0 1 1 1 nan
nan -1 -1 -1 -1 -1 -1 -1 -1 -2 -2 -2 -2 -2 -1 -1 -0 -0 -1 -1 -1 -1 -0 -1 -1 -1 -1 -1 -1 -1 -1 -1 -0 -1 -1 -1 -1 -1 -1 -1 -1 -1 -2 -2 -2 -1 -1 -0 -1 -1 -1 -1 0 0 -0 -0 -1 -1 -1 -1 -2 -3 -1 0 0 1 1 1 nan
nan -2 -1 -1 -1 -1 -1 -1 -1 -1 -1 -2 -2 -2 -1 -1 -1 -1 -1 -1 -1 -1 -1 -1 -1 -1 -1 -0 -0 -1 -1 -1 -1 -1 -1 -1 -1 -1 -1 -1 -1 -1 -1 -1 -1 -1 -1 -0 -1 -1 -1 -0 1 1 0 -1 -1 -0 1 -0 -2 -2 -1 0 1 1 1 1 nan
nan -2 -1 -1 -1 -1 -1 -1 -1 -1 -1 -1 -1 -1 -1 -1 -1 -0 -0 0 -1 -1 -1 -1 -1 -1 -1 -1 -1 -1 -1 -1 -1 -1 -1 -1 -1 -1 -1 -1 -1 -1 -1 -1 -1 -1 -1 -0 -1 -1 -1 -0 1 1 0 -0 0 1 1 0 -1 -1 0 1 1 1 1 0 nan
nan -1 -1 -1 -1 -1 -1 -1 -1 -1 -1 -1 -1 -1 -1 -1 -1 -1 -1 -1 -1 -1 -1 -1 -1 -1 -1 -1 -1 -1 -1 -2 -2 -2 -2 -2 -2 -2 -1 -1 -1 -1 -1 -1 -1 -1 -1 -1 -1 -2 -1 -0 1 1 0 0 1 1 1 1 1 1 1 1 1 0 0 0 nan
nan -1 -1 -1 -1 -1 -1 -0 -1 -1 -1 -1 -0 -0 -0 -0 -0 -1 -1 -2 -1 -1 -1 -1 -1 -1 -1 -1 -1 -1 -1 -1 -2 -2 -3 -2 -2 -2 -2 -1 -1 -1 -1 -1 -1 -1 -1 -1 -1 -1 -1 -0 1 1 1 1 1 1 1 1 2 2 2 1 1 0 0 0 nan
nan -2 -2 -2 -1 -1 -1 -0 -0 -0 -0 -0 -0 -0 -0 -0 -0 -0 -1 -1 -1 -1 -1 -1 -1 -2 -2 -1 -1 -1 -1 -1 -1 -1 -2 -2 -2 -2 -1 -1 -1 -1 -1 -1 -1 -1 -1 -1 -1 -1 -1 -1 0 1 1 1 1 0 0 0 1 3 3 2 1 1 1 1 nan
nan -1 -2 -2 -1 -1 -1 -1 -1 -1 -0 -0 -0 -0 -0 -0 -0 -0 -0 -0 -0 -1 -1 -1 -1 -1 -1 -1 -1 -1 -0 -0 -1 -1 -1 -2 -1 -1 -1 -1 -0 -0 -1 -1 -1 -1 -1 -1 -1 -1 -1 -1 0 1 1 1 0 0 -0 -0 1 3 4 3 3 2 2 1 nan
nan -2 -1 -1 -1 -1 -1 -1 -1 -1 -1 -0 -0 -1 -1 -0 -1 -0 -0 -0 -0 -0 -0 -0 -1 -1 -1 -1 -1 -1 -0 -0 -1 -1 -1 -1 -1 -1 -1 -1 -1 -0 -0 -0 -0 -1 -1 -1 -1 -1 -1 -1 0 1 1 1 0 0 0 -0 0 1 2 3 4 4 3 2 nan
nan -1 -2 -1 -1 -1 -1 -1 -1 -1 -1 -0 -0 -0 -1 -0 -0 -0 -0 -0 -0 -0 -0 -0 -0 -1 -1 -1 -1 -1 -0 -0 -0 -1 -1 -1 -2 -2 -1 -1 -1 -0 -0 -0 -0 -0 -1 -1 -1 -1 -1 -1 -0 1 1 1 0 0 0 0 0 0 0 1 2 2 3 2 nan
nan -1 -1 -1 -1 -1 -1 -1 -1 -1 -1 -1 -0 -0 -1 -1 -0 -0 -0 -0 -0 0 0 0 0 -0 -1 -1 -1 -0 -0 -0 -0 -1 -1 -2 -2 -2 -2 -1 -1 -0 -0 -0 -0 -0 -1 -1 -1 -1 -1 -1 -0 1 2 1 0 0 0 0 0 0 0 0 0 1 1 1 nan
nan -1 -1 -1 -1 -1 -1 -1 -1 -1 -1 -1 -1 -1 -1 -1 -1 -0 0 0 0 0 -0 0 -0 -0 -0 -0 -1 -0 -0 -0 -0 -1 -1 -2 -2 -2 -2 -2 -1 -0 -0 -0 -0 -0 -0 -0 -0 -1 -1 -1 -0 1 2 1 1 0 0 0 0 0 -0 -0 -0 -0 -1 -1 nan
nan -1 -1 -1 -1 -1 -1 -1 -1 -1 -1 -1 -1 -1 -1 -1 -1 -0 -0 0 0 -0 -0 -0 -0 -0 -0 -0 -0 -0 -0 -0 -0 -1 -1 -1 -2 -2 -2 -2 -1 -0 -0 0 -0 -0 0 -0 -0 -0 -0 -0 0 1 1 1 1 0 0 0 0 0 -0 -0 -0 -1 -1 -2 nan
nan -1 -1 -1 -1 -1 -1 -1 -0 -1 -1 -1 -1 -1 -1 -1 -1 -1 -0 0 0 -0 -1 -1 -1 -0 -0 -0 -0 -1 -1 -1 -0 -0 -0 -1 -1 -2 -2 -2 -1 -1 0 0 0 0 -0 -0 -0 -0 0 0 0 0 0 0 0 0 -0 -0 -0 -0 -0 -0 -0 -1 -1 -1 nan
nan -1 -1 -1 -1 -1 -1 -1 -0 -1 -1 -1 -1 -1 -1 -1 -1 -1 -0 -0 0 -0 -1 -1 -1 -1 -0 0 -0 -0 -1 -1 -0 -0 -0 -0 -0 -1 -1 -2 -2 -1 -0 0 0 0 -0 -0 -0 -0 -0 0 0 0 0 -0 -0 -0 -0 -0 -0 -0 -0 -0 -0 -0 -1 -1 nan
nan -1 -1 -1 -1 -1 -1 -1 -0 -1 -1 -1 -1 -1 -1 -0 -0 -1 -1 -1 -0 -0 -0 -1 -1 -1 -1 -0 0 0 -0 -0 -0 -0 0 0 0 -0 -1 -1 -1 -1 -1 -1 -0 -0 -0 -0 -0 -0 -0 0 0 0 -0 -0 -0 -0 -0 -0 -0 0 0 -0 -0 -0 -0 -0 nan
nan -0 -1 -1 -0 -1 -1 -1 -0 -0 -1 -1 -1 -1 -1 -0 -0 -0 -1 -1 -0 -0 -0 -0 -1 -1 -1 -1 -0 -0 0 -0 -0 -0 -0 0 0 -0 -0 -1 -1 -1 -1 -1 -1 -0 -0 -0 -0 -0 0 0 1 1 0 0 -0 -0 0 0 0 0 0 -0 -0 -0 -0 -0 nan
nan -0 -0 0 -0 -0 -0 -0 -0 -0 -0 -1 -1 -1 -1 -1 -0 -0 -0 -1 -1 -0 -0 -0 -1 -1 -2 -2 -2 -1 -0 0 0 -0 -0 -0 -0 0 0 -0 -0 -0 -0 -1 -1 -1 -0 -0 0 0 1 1 1 1 1 1 0 0 1 0 0 0 0 -0 -0 -0 0 0 nan
nan 0 0 0 0 0 -0 -0 -0 -0 -0 -0 -1 -1 -1 -1 -1 -0 -0 -0 -0 -0 -0 -0 -1 -1 -1 -2 -2 -2 -1 -0 0 0 0 -0 -0 0 0 0 0 -0 -0 -0 -1 -1 -1 -0 -0 0 0 1 1 1 1 1 1 1 1 1 1 1 1 1 1 1 1 1 nan
nan 0 0 0 0 0 0 -0 -0 -0 -0 -1 -1 -1 -1 -1 -1 -0 -0 -0 -0 -0 -0 -1 -1 -1 -1 -1 -2 -2 -2 -1 -0 0 0 0 0 -0 0 0 0 0 -0 -0 -0 -0 -0 -1 -0 -0 -0 -0 0 0 0 1 1 1 1 1 1 1 1 1 1 1 1 1 nan
nan 0 0 0 0 0 0 -0 -0 -0 -1 -1 -1 -1 -1 -1 -1 -1 -1 -0 -0 -0 -0 -1 -1 -1 -1 -1 -1 -1 -2 -2 -2 -1 -0 0 0 0 -0 0 0 0 -0 -0 -0 -0 0 -0 -0 -0 -0 -0 -0 0 0 0 0 0 1 1 1 1 1 1 1 1 1 1 nan
nan -0 0 -0 -0 -0 -0 -0 -0 -1 -1 -1 -1 -1 -1 -1 -1 -1 -1 -0 -0 -0 -0 -1 -1 -1 -1 -1 -1 -1 -1 -2 -2 -2 -2 -1 -0 -0 0 -0 -0 -0 -0 0 -0 -1 -0 0 -0 -0 -0 -0 -0 -0 -0 -0 0 0 0 0 0 0 0 1 1 1 1 1 nan
nan -0 -0 -0 -0 -0 -0 -0 -0 -0 -0 -1 -1 -1 -1 -1 -1 -1 -1 -1 -0 -0 -0 -1 -1 -1 -1 -1 -1 -1 -1 -1 -1 -2 -2 -2 -1 -1 -0 -0 -0 -0 -0 -0 0 -0 -1 -0 0 0 -0 -0 -0 -0 -0 -0 -0 0 0 0 0 0 0 0 0 0 0 1 nan
nan -1 -1 -0 -0 -0 -0 -0 -0 -0 -0 -1 -1 -1 -1 -1 -1 -1 -1 -1 -1 -0 -0 -0 -1 -1 -1 -1 -1 -1 -1 -1 -1 -1 -1 -1 -1 -1 -1 -1 -0 -0 -0 -0 0 -0 -1 -1 -0 -0 -0 -0 -0 -0 -0 -0 -0 0 0 0 -0 -0 0 0 0 0 0 0 nan
nan -1 -1 -1 -1 -1 -1 -1 -1 -1 -1 -1 -1 -1 -1 -1 -1 -1 -1 -1 -0 -1 -1 -0 -0 -1 -1 -1 -1 -1 -1 -1 -1 -1 -1 -1 -1 -1 -1 -1 -1 -1 -0 0 0 -0 -0 -1 -1 -1 -1 -1 -0 -0 -0 -0 -0 -0 -0 -0 -0 -0 -0 -0 -0 -0 -0 -0 nan
nan -1 -1 -1 -1 -1 -1 -1 -1 -1 -1 -1 -1 -1 -1 -1 -1 -1 -1 -1 -1 -1 -1 -0 -0 -0 -1 -1 -1 -1 -1 -1 -1 -1 -1 -1 -1 -1 -0 -1 -1 -1 -0 -0 -0 -0 -0 -0 -1 -1 -1 -1 -1 -1 -1 -1 -1 -1 -1 -1 -0 -0 -0 -0 -0 -0 -0 -0 nan
nan -1 -1 -1 -1 -1 -1 -1 -1 -1 -1 -1 -1 -1 -1 -1 -1 -1 -1 -1 -1 -1 -1 -0 -0 -0 -0 -1 -1 -1 -1 -1 -1 -1 -1 -1 -1 -0 -0 -0 -0 -1 -1 -1 -1 -0 0 -0 -0 -1 -1 -1 -1 -1 -1 -1 -1 -1 -1 -1 -1 -1 -1 -1 -1 -1 -1 -0 nan
nan -1 -1 -1 -1 -2 -2 -1 -1 -1 -1 -1 -1 -1 -1 -1 -1 -1 -1 -1 -1 -1 -0 -1 -0 -0 -0 -0 -0 -0 -0 -1 -1 -1 -1 -1 -1 -0 -0 -0 -0 -0 -0 -1 -1 -0 -0 -0 -0 -0 -0 -1 -1 -1 -1 -1 -1 -1 -1 -1 -1 -1 -1 -1 -1 -1 -1 -1 nan
nan -1 -1 -1 -1 -2 -2 -2 -2 -2 -2 -1 -1 -1 -1 -1 -1 -1 -1 -1 -1 -1 -1 -1 -1 -0 -0 -0 -0 -0 -0 -0 -0 -0 -1 -1 -0 -0 -0 -0 0 1 1 0 -0 -0 -0 -0 -0 -0 -0 -1 -1 -1 -1 -1 -1 -1 -1 -1 -1 -1 -1 -1 -1 -1 -1 -1 nan
nan -1 -1 -1 -2 -2 -2 -2 -2 -2 -2 -2 -2 -1 -1 -1 -1 -1 -1 -1 -1 -1 -1 -1 -1 -1 -0 -0 -0 -0 -0 -0 -0 -0 -0 -0 -0 -0 -0 -0 0 1 1 -0 -1 -1 -0 -0 -0 -1 -1 -1 -1 -1 -1 -1 -1 -1 -1 -1 -1 -1 -1 -1 -1 -0 -0 -0 nan
nan -2 -2 -2 -2 -2 -2 -2 -2 -2 -2 -2 -2 -1 -1 -1 -1 -1 -2 -1 -1 -1 -1 -1 -1 -1 -0 -0 -0 -0 -0 -0 -0 -0 -0 -0 -0 -0 -0 -0 -0 -0 -1 -1 -1 -1 -0 -0 -1 -1 -1 -1 -0 -0 -0 -1 -1 -1 -1 -1 -1 -1 -1 -0 -0 0 0 1 nan
nan -2 -2 -2 -2 -1 -1 -1 -2 -2 -2 -2 -2 -2 -2 -1 -1 -1 -1 -2 -1 -1 -1 -1 -1 -1 -1 -0 -0 -0 -1 -1 -1 -0 -0 -1 -0 -0 -0 -0 -1 -1 -1 -2 -1 -0 -0 -0 -0 -1 -0 -0 -0 -0 -0 -0 -0 -0 -0 -0 -0 -0 -0 -0 0 0 1 1 nan
nan -2 -2 -2 -2 -1 -1 -1 -2 -2 -2 -2 -2 -2 -2 -1 -1 -1 -1 -1 -1 -1 -1 -1 -1 -1 -1 -1 -0 -0 -0 -1 -1 -1 -1 -1 -1 -1 -1 -0 -1 -1 -1 -1 -0 -0 -1 -0 -0 -0 -0 -0 -0 -0 -0 -0 -0 -0 -0 -0 -0 -0 -0 0 0 0 0 0 nan
nan -1 -1 -1 -1 -1 -1 -1 -1 -1 -2 -2 -2 -2 -2 -2 -1 -1 -1 -1 -1 -1 -1 -1 -1 -1 -1 -0 -0 -0 -0 -0 -0 -0 -0 -0 -1 -1 -1 -1 -1 -0 -0 -1 -0 -1 -1 -1 -0 -0 -0 -0 -0 -0 -0 -0 -0 -0 -0 -0 -0 -0 -0 0 0 0 0 0 nan
nan -1 -1 -1 -1 -1 -1 -1 -1 -1 -1 -1 -1 -1 -1 -1 -1 -1 -1 -1 -1 -1 -1 -1 -1 -1 -1 -0 -0 -0 -0 -0 -0 -0 -0 -0 -1 -1 -1 -1 -1 -0 -0 -0 -0 -1 -1 -0 -0 -0 -0 -0 -0 -0 -0 -0 -0 -0 -0 -0 -0 -0 0 0 0 0 0 -0 nan
nan -0 0 0 -0 -0 -1 -1 -1 -1 -1 -1 -1 -1 -1 -1 -1 -1 -1 -1 -1 -1 -1 -1 -1 -1 -1 -0 -0 -0 -0 -0 -0 -0 -0 -0 -0 -1 -1 -1 -1 -0 -0 -0 -1 -0 0 -0 -0 -0 -0 -0 -0 -0 -0 -0 -0 -0 -0 -0 -0 -0 0 0 0 0 0 -0 nan
nan -0 0 0 0 0 -0 -0 -0 -0 -1 -1 -1 -1 -1 -1 -1 -1 -1 -0 -0 -0 -1 -1 -1 -1 -1 -0 -0 -0 -0 -0 -0 -0 -1 -0 -0 -0 -0 -1 -1 -0 -0 -0 -1 -1 -0 0 0 -0 -0 -0 -0 -0 -0 -0 -0 -0 -0 -0 -0 0 0 0 0 0 0 -0 nan
nan nan nan nan nan nan nan nan nan nan nan nan nan nan nan nan nan nan nan nan nan nan nan nan nan nan nan nan nan nan nan nan nan nan nan nan nan nan nan nan nan nan nan nan nan nan nan nan nan nan nan nan nan nan nan nan nan nan nan nan nan nan nan nan nan nan nan nan nan
Wind_Speed
30 30 30 31 31 31 32 32 33 33 34 35 36 36 37 37 37 37 38 38 38 39 40 41 41 41 42 41 41 41 40 40 39 38 37 37 36 35 35 34 34 33 33 32 31 30 29 27 26 26 27 31 35 36 35 32 28 27 28 29 30 30 29 28 27 27 26 26 26
30 30 30 30 30 31 32 32 33 33 34 35 35 35 36 36 36 37 38 38 38 39 39 40 41 41 42 41 41 41 40 40 39 38 38 37 35 34 34 34 33 33 32 31 30 30 29 28 26 25 25 28 32 36 37 36 31 29 29 30 31 30 29 28 27 27 26 26 26
30 30 30 30 30 31 32 33 33 34 34 35 35 35 35 35 36 36 37 38 38 39 39 40 41 41 41 42 41 41 40 40 39 38 37 36 35 34 33 33 32 32 31 30 30 29 29 27 26 25 25 26 29 34 38 40 37 33 31 32 31 30 29 28 28 27 26 26 26
30 30 30 30 30 31 31 32 33 34 34 35 35 35 35 35 35 36 37 38 38 39 39 40 40 41 41 41 41 41 40 39 38 37 36 35 34 33 32 31 31 31 30 29 29 29 28 27 25 25 24 25 26 29 34 39 39 36 33 33 33 32 30 29 28 27 27 27 27
31 30 30 30 30 30 31 32 33 33 34 34 34 35 35 35 35 36 37 38 38 39 39 39 40 40 41 41 41 41 40 38 37 35 34 33 32 31 31 30 30 29 29 28 28 27 27 26 25 25 24 24 24 26 30 35 35 34 33 33 34 34 32 29 28 28 27 28 27
31 31 30 30 30 30 31 31 32 33 33 34 34 34 35 35 35 36 37 38 38 39 39 39 40 40 41 41 41 40 39 38 36 34 33 32 32 31 30 29 29 28 27 27 26 26 25 25 25 25 24 23 23 24 27 30 30 29 29 31 34 35 32 29 28 28 28 28 27
31 31 30 30 30 30 31 32 32 33 33 33 34 34 35 35 35 36 37 37 38 39 39 39 40 41 41 41 41 40 39 38 36 34 33 33 32 31 30 30 29 27 26 25 24 24 24 24 24 24 24 23 22 23 25 27 27 26 25 27 32 33 32 30 29 29 28 27 26
31 30 30 30 30 30 31 31 32 33 33 34 34 34 34 35 35 36 36 37 38 38 39 39 40 40 41 41 40 39 38 37 36 35 35 35 34 33 32 31 29 27 26 24 23 23 23 23 24 25 24 23 22 22 24 26 27 23 20 21 27 30 31 31 30 29 28 27 26
31 31 30 30 30 30 31 31 32 33 33 34 34 34 34 34 35 36 36 37 37 38 39 39 39 40 40 40 39 38 37 36 36 36 36 37 37 36 35 32 29 27 25 23 22 21 22 23 24 25 25 24 23 22 22 25 25 20 15 16 23 28 30 31 31 29 28 27 25
32 31 31 31 31 31 31 31 32 32 33 33 33 33 33 34 34 35 35 36 37 38 38 38 38 38 38 38 37 36 35 34 34 34 36 37 38 38 36 33 29 26 24 22 20 20 21 23 24 25 25 25 23 21 20 22 21 17 13 13 19 25 28 29 30 30 28 26 25
32 32 32 32 32 32 32 32 32 32 33 33 33 33 33 33 34 34 34 35 36 37 37 37 37 36 36 36 35 34 32 31 31 32 34 36 38 38 36 32 28 25 22 20 19 19 21 23 24 25 25 25 24 22 20 20 18 15 12 11 15 20 23 25 27 28 28 26 25
32 32 32 32 32 32 32 32 32 33 33 33 32 32 32 33 33 33 33 34 35 36 36 35 34 34 34 34 33 31 29 29 29 30 32 35 37 37 35 31 27 23 19 17 17 18 21 23 25 25 25 26 25 23 21 19 18 15 12 10 10 12 15 18 20 22 24 24 23
32 32 33 33 32 32 32 32 32 32 32 32 31 31 31 32 32 32 32 33 34 34 34 34 33 32 31 31 30 28 26 26 27 29 30 32 33 33 31 28 24 20 17 15 16 18 21 24 25 25 25 25 25 24 21 19 17 15 13 11 9 9 10 11 12 14 17 20 21
32 32 33 33 33 32 32 32 32 32 32 31 30 30 30 31 30 30 30 31 32 33 34 34 33 32 30 29 26 24 24 25 27 29 29 29 29 28 26 22 20 17 15 14 15 18 21 22 23 22 21 22 23 23 22 19 17 15 13 12 11 11 11 10 9 9 11 14 17
32 32 33 33 32 32 32 32 32 32 32 31 30 29 29 29 29 29 28 29 30 32 33 33 34 33 31 29 26 23 23 25 28 30 30 30 28 25 21 18 14 12 10 11 15 18 20 20 19 16 13 13 17 21 23 21 18 15 13 13 13 13 13 11 10 10 11 13 16
32 32 32 32 32 32 32 32 32 32 31 30 29 28 28 28 28 28 27 28 29 30 32 33 33 33 32 31 28 26 24 25 28 30 31 32 29 26 21 16 10 6 5 8 12 16 18 18 15 10 6 5 9 14 18 19 17 15 14 13 14 14 14 13 13 13 14 16 18
32 32 32 32 32 32 32 31 31 31 31 30 28 27 26 27 27 27 26 26 28 30 31 32 32 32 32 32 31 29 28 27 27 29 31 32 32 29 25 19 12 4 3 6 10 12 14 14 13 10 6 3 3 6 9 12 12 12 12 13 14 14 15 15 14 15 16 17 18
33 32 32 32 32 32 32 32 31 31 30 29 27 26 25 25 26 26 25 25 26 28 31 31 31 31 31 32 32 32 31 29 28 28 29 31 32 31 29 24 18 11 4 2 6 9 11 11 11 11 9 7 6 5 6 7 8 10 11 12 13 14 14 14 14 14 14 15 16
32 32 32 33 33 33 33 32 32 31 30 29 27 25 24 24 24 25 25 25 25 27 29 31 31 31 30 31 31 32 32 31 29 27 27 28 30 31 31 29 25 20 14 7 2 3 6 9 10 10 11 11 11 11 11 11 11 11 12 12 13 13 14 13 13 13 13 13 14
32 32 33 33 33 33 33 33 32 31 30 29 27 25 24 23 23 24 25 25 25 26 28 30 31 31 31 30 30 31 32 32 31 29 27 26 27 29 30 30 29 26 22 17 12 7 2 1 4 7 10 12 13 14 14 14 14 15 15 15 15 15 15 15 15 14 14 14 14
31 32 32 32 32 33 33 33 33 32 30 29 27 25 24 23 23 23 24 25 25 25 27 29 31 32 32 31 31 31 31 31 31 30 29 27 26 26 27 28 29 28 26 23 20 17 13 8 4 2 5 8 10 10 11 12 14 15 16 17 17 18 18 18 18 17 17 16 15
31 31 31 32 32 32 33 33 33 32 31 29 28 26 24 23 22 23 23 24 25 25 26 28 30 31 32 32 32 32 31 30 30 30 29 28 26 25 24 25 26 27 27 25 24 23 21 18 14 10 8 7 7 7 8 8 10 12 14 15 16 17 17 17 17 17 17 16 15
30 30 31 31 31 32 32 32 32 32 31 31 29 27 26 24 22 22 23 24 25 25 26 28 29 30 31 32 32 31 31 30 29 28 28 28 27 26 25 24 23 24 25 25 24 23 23 22 21 19 16 14 12 10 9 8 8 9 10 11 12 13 13 13 13 13 13 13 13
31 30 30 31 31 31 32 32 32 32 32 31 30 29 27 25 23 22 22 23 24 24 25 27 28 29 30 31 31 31 31 30 29 28 28 27 27 26 26 25 24 23 23 23 23 22 21 22 22 21 20 18 16 15 13 11 10 9 9 9 10 10 10 10 10 9 9 9 9
32 31 30 30 31 31 31 31 32 32 32 32 31 29 27 25 24 22 22 22 23 23 24 25 26 27 28 29 30 30 30 30 29 29 28 27 26 26 25 25 24 23 22 21 22 21 21 20 21 21 21 19 18 16 15 14 13 11 10 9 9 9 9 10 10 10 10 10 10
33 32 31 31 31 31 31 31 31 31 31 31 31 30 28 26 24 23 22 22 22 22 23 24 25 26 27 28 29 29 30 29 29 29 29 29 28 27 26 24 23 22 22 21 19 19 20 20 21 21 21 20 18 17 16 15 14 13 12 10 9 9 8 9 10 10 11 12 13
34 33 32 31 31 31 31 31 31 31 31 31 31 30 28 27 24 23 21 21 21 22 22 23 24 25 26 27 28 29 29 29 29 29 30 30 30 29 28 26 22 20 19 20 18 17 18 20 21 21 22 21 19 18 16 15 14 13 12 11 10 9 8 8 8 8 9 10 12
34 34 33 32 32 31 31 31 31 31 31 31 30 30 29 27 25 23 21 20 21 21 22 22 23 24 26 27 27 28 28 29 29 30 30 31 31 30 28 25 22 18 16 16 17 16 15 18 20 22 22 22 20 18 17 16 15 14 13 12 11 10 10 9 8 7 6 6 7
35 34 34 33 33 32 32 32 32 32 32 31 30 30 29 28 26 24 22 20 21 22 22 21 22 24 26 27 26 26 27 28 29 30 30 31 30 29 26 23 19 16 14 13 16 15 13 14 18 21 22 22 20 19 18 17 16 15 14 13 12 11 11 10 9 9 8 7 6
34 34 34 33 33 33 33 33 33 33 32 32 31 30 29 28 27 25 23 21 21 22 22 21 21 23 25 26 25 25 26 28 29 30 30 30 30 28 25 21 17 15 13 13 15 13 10 11 16 20 22 22 21 19 19 18 17 16 15 14 13 12 11 11 10 10 9 9 8
34 34 34 33 33 33 33 33 33 33 33 32 31 30 29 29 28 26 24 22 21 21 22 21 21 21 22 23 23 24 25 27 28 29 30 30 29 27 24 20 17 16 15 16 15 11 7 9 14 18 20 21 20 20 20 19 19 18 17 15 14 13 12 11 10 10 10 10 10
33 33 33 33 33 33 33 33 33 33 33 32 32 31 30 29 28 27 26 24 22 22 22 22 22 21 20 21 21 23 24 26 27 28 28 28 27 25 22 19 18 19 20 20 13 7 6 10 14 18 19 20 20 20 20 20 19 19 18 17 16 14 13 12 11 10 10 10 10
33 32 32 32 32 32 33 33 33 33 32 32 31 31 30 29 28 28 27 25 24 23 23 23 23 21 19 19 19 21 23 24 25 26 26 25 24 22 19 18 19 22 23 21 10 6 8 13 16 18 19 20 20 20 20 20 20 19 19 18 17 16 14 12 11 11 11 11 11
32 32 31 30 30 31 32 32 32 32 32 32 31 31 30 30 29 28 28 27 26 25 24 23 22 21 19 18 18 19 20 22 23 23 23 23 21 19 16 16 19 23 24 20 11 8 12 16 18 18 19 19 19 20 19 19 19 18 18 18 18 17 15 13 12 12 12 12 12
31 30 30 29 29 30 30 30 31 31 32 32 32 31 31 30 29 29 28 28 27 26 24 22 21 20 19 17 17 17 18 19 20 21 21 21 19 17 14 13 17 21 23 20 14 13 16 19 19 19 19 19 19 19 19 18 17 17 16 16 17 16 15 13 12 11 11 10 11
30 29 29 28 29 29 29 29 30 32 32 33 33 32 32 31 29 28 28 28 27 27 25 23 21 19 18 17 16 15 16 17 18 19 19 18 18 16 13 11 14 18 21 21 17 16 18 20 20 20 19 19 18 19 18 18 17 15 15 15 15 15 14 12 11 10 9 8 8
28 28 27 28 28 28 28 29 30 32 33 33 33 33 33 31 30 28 28 27 27 27 26 24 21 19 18 17 15 14 15 15 16 17 17 17 16 15 13 11 12 15 19 20 18 16 18 19 20 20 19 19 18 18 18 17 16 15 13 13 13 13 12 11 10 9 8 8 8
27 26 26 27 27 27 28 29 30 31 33 34 34 34 33 31 30 28 27 27 26 26 25 23 21 19 17 16 14 13 13 14 15 16 16 15 15 15 14 13 11 12 16 19 20 17 15 17 19 19 19 18 18 18 17 16 15 14 13 12 11 11 10 9 9 8 9 9 10
26 26 26 26 26 27 27 28 30 31 33 34 34 34 33 31 29 28 26 25 25 25 24 22 19 17 16 15 13 12 12 12 13 14 14 14 14 14 15 15 13 11 13 17 21 19 14 13 16 18 18 18 17 16 15 15 14 13 12 11 10 9 8 7 6 6 7 8 9
26 25 25 25 26 27 27 28 30 32 33 34 34 34 32 30 28 26 25 24 23 23 22 20 17 15 14 14 13 13 13 12 13 14 14 13 13 13 14 15 14 11 10 13 18 20 17 12 13 15 17 17 16 14 13 12 12 12 12 11 10 9 7 6 5 4 4 5 6
26 25 24 24 25 26 28 29 31 33 34 34 33 32 31 29 27 25 23 22 21 21 20 19 16 13 12 12 12 13 13 13 14 14 14 14 13 13 14 15 15 13 11 10 14 19 20 16 13 13 16 18 17 13 10 9 10 10 11 11 10 10 9 8 6 5 4 4 4
Wind_Direction
352 353 354 354 353 352 351 350 348 347 346 346 346 346 345 343 341 339 338 337 335 334 332 331 331 330 329 329 329 328 326 324 322 320 318 315 311 308 304 300 297 295 293 289 285 282 278 275 274 273 272 269 265 262 259 254 248 242 237 234 227 223 222 223 223 223 222 221 221
352 353 353 353 353 352 350 349 348 347 346 346 346 346 345 343 341 340 338 337 335 334 333 332 332 331 331 331 330 329 327 325 323 320 317 314 312 309 306 303 299 297 294 291 287 283 279 275 272 272 272 271 267 263 260 257 253 245 237 231 224 218 216 218 219 220 220 218 217
352 352 352 352 353 352 351 350 349 348 348 347 346 346 345 343 341 339 338 337 336 335 334 333 333 332 332 331 330 329 327 325 323 320 317 314 312 310 307 304 301 298 295 292 288 284 280 275 272 271 272 272 269 264 260 257 257 251 240 230 221 214 211 213 215 216 216 214 212
352 352 352 353 353 353 352 350 349 349 349 348 347 346 345 343 341 340 338 337 337 337 336 335 334 333 332 331 330 329 327 325 323 320 317 315 312 310 308 306 303 300 296 293 289 284 280 276 273 271 271 273 272 267 260 255 255 251 240 228 219 213 212 212 213 213 212 210 209
351 352 352 352 352 352 351 350 350 350 350 349 348 347 346 344 342 341 340 339 339 338 338 337 335 334 332 331 330 329 328 326 324 322 320 317 314 312 310 307 304 302 298 294 290 284 280 276 274 271 271 273 274 270 262 255 252 245 234 221 215 214 213 211 211 210 209 207 206
351 351 351 351 351 351 350 350 351 351 351 350 349 348 346 344 343 342 341 340 340 339 339 338 336 334 333 332 331 330 329 327 326 325 323 321 318 315 312 310 307 304 300 296 290 284 279 276 274 271 269 271 273 269 261 252 244 234 222 213 211 212 213 209 207 206 205 204 203
351 351 350 350 350 350 350 350 351 351 351 350 350 349 347 345 344 342 342 341 341 341 340 338 337 336 334 333 332 330 329 328 328 328 327 325 322 319 316 313 309 306 302 297 291 285 279 276 275 272 269 268 269 265 256 244 232 221 211 205 206 208 209 208 206 204 202 202 201
350 350 349 349 349 349 349 350 351 352 352 351 350 349 347 345 344 343 343 344 344 343 341 339 337 336 335 333 332 330 329 329 329 329 329 327 325 322 319 315 311 307 303 298 292 285 281 278 277 273 269 266 266 262 250 234 220 212 205 200 198 203 207 207 205 203 202 201 201
350 349 348 348 348 348 348 349 350 351 352 351 350 349 347 346 345 344 345 346 345 343 341 340 338 337 336 334 331 330 329 329 329 329 329 327 325 323 320 317 312 307 302 297 291 286 282 279 278 273 268 264 264 259 245 228 214 209 208 202 191 192 198 203 204 203 202 202 202
350 349 348 347 347 347 347 347 348 350 350 350 349 348 348 347 346 346 348 348 347 345 343 341 339 337 335 333 331 330 329 329 329 328 325 323 322 321 319 316 311 305 300 296 291 287 283 281 279 276 270 264 261 255 242 226 216 213 212 202 184 181 186 194 199 201 201 201 201
349 348 348 347 346 346 345 345 346 348 349 349 349 348 348 347 347 348 350 351 350 347 345 343 340 338 335 333 331 330 330 331 330 327 323 320 320 320 319 315 310 304 298 294 292 291 289 285 283 281 276 268 261 252 240 228 223 222 215 194 174 169 173 182 190 195 197 198 199
349 347 347 346 346 345 345 344 345 346 347 348 348 348 348 347 347 350 353 355 354 352 349 347 345 342 338 335 333 332 333 335 335 331 326 322 321 320 318 314 308 302 297 295 296 295 292 288 286 285 281 272 262 251 239 228 226 228 228 215 191 178 175 177 180 184 189 194 197
348 347 346 345 345 345 344 344 344 344 345 347 348 348 347 347 347 350 355 358 358 357 355 354 352 349 345 341 337 337 340 345 346 343 337 331 326 322 317 312 306 301 297 296 292 287 285 286 287 287 283 272 260 249 237 226 221 224 231 237 236 226 213 200 188 182 184 190 197
348 346 346 345 345 345 344 344 344 344 344 345 347 348 347 346 347 350 355 359 360 0 0 1 0 359 355 350 346 347 352 358 1 359 353 345 335 327 318 311 304 300 297 292 281 277 278 283 287 289 283 268 254 243 235 226 219 218 225 237 248 251 245 230 214 200 193 196 203
349 348 347 346 345 345 345 345 344 343 343 345 347 347 347 346 346 348 352 357 359 360 1 2 4 5 4 1 359 1 6 11 13 12 7 359 350 339 329 318 307 299 289 277 268 269 274 280 285 289 285 264 246 237 233 230 226 222 224 232 244 251 251 243 232 222 218 218 221
351 350 349 348 348 347 346 346 345 344 344 344 346 346 346 345 345 346 349 353 355 357 358 359 1 4 6 8 9 12 16 20 22 21 17 12 5 357 348 338 325 302 263 251 256 266 273 275 276 280 283 263 242 236 233 232 230 227 226 230 237 244 246 245 241 237 235 235 237
354 354 353 352 351 349 349 348 347 346 345 344 345 346 346 345 345 345 346 349 352 354 355 355 357 359 3 7 11 15 19 24 27 27 25 21 16 10 5 359 356 347 229 228 248 264 272 272 266 261 257 250 241 236 232 228 225 223 223 226 231 237 241 243 242 240 240 240 242
356 356 356 355 354 353 352 350 349 348 346 345 345 345 346 345 345 344 344 346 350 352 353 352 353 355 358 1 6 11 16 21 26 29 29 27 24 20 16 12 12 15 24 211 236 255 266 267 261 255 250 245 240 238 234 227 222 222 224 228 233 238 241 242 241 240 239 240 241
357 358 358 358 357 356 355 354 352 350 348 346 345 345 345 345 345 344 344 345 348 351 353 352 351 352 353 356 360 4 10 15 21 27 31 32 30 26 22 19 18 19 24 32 27 254 257 260 257 253 249 245 243 244 245 244 241 239 240 242 244 245 245 243 241 240 239 239 240
358 359 360 360 359 358 357 356 354 352 350 348 346 346 345 345 345 345 345 346 348 350 352 352 351 350 350 352 354 358 3 8 14 20 27 32 34 32 28 24 22 23 26 30 35 38 34 258 244 241 239 239 239 241 243 244 244 245 246 246 246 245 243 242 241 240 240 240 239
358 359 360 360 360 359 359 357 356 354 352 350 348 347 346 345 345 346 346 347 347 350 352 352 351 350 349 350 351 353 356 0 6 13 20 28 33 35 32 27 23 23 27 33 38 43 49 59 79 162 205 212 216 220 223 227 229 230 231 232 232 232 233 234 234 234 234 234 233
356 357 358 358 359 359 359 358 356 355 353 352 350 349 347 345 345 345 346 346 347 350 353 353 351 349 349 349 350 351 352 354 359 5 13 20 28 33 35 32 26 22 22 27 35 42 47 53 60 72 93 121 139 157 172 183 192 198 202 206 209 213 216 218 219 221 221 222 222
354 355 356 356 357 358 358 357 356 356 355 354 353 350 348 346 345 345 345 346 347 350 353 353 350 349 349 349 350 350 351 351 354 359 5 13 20 27 33 35 31 24 18 17 21 29 38 44 50 56 64 73 83 93 106 120 136 148 159 167 174 180 184 188 192 195 199 203 208
351 352 353 354 355 356 356 356 355 355 355 355 354 352 349 347 345 345 345 346 348 351 354 353 350 348 348 349 350 351 352 352 353 355 359 5 12 18 24 30 32 29 22 14 9 11 19 29 35 41 47 52 59 65 72 79 89 101 114 125 133 140 144 147 151 155 162 172 183
349 350 351 351 353 353 354 354 354 354 355 355 354 353 350 348 347 347 347 348 350 353 355 355 351 348 348 348 349 351 353 355 356 357 358 360 3 7 12 19 26 29 26 17 8 2 3 10 19 25 31 36 41 46 52 57 63 70 80 91 103 113 120 124 126 128 130 133 139
347 348 349 350 351 351 352 352 352 353 353 354 354 353 352 350 348 348 349 350 352 355 358 357 352 349 348 348 349 351 354 357 360 1 2 1 1 1 2 6 14 21 24 19 12 2 355 356 4 11 17 22 26 31 36 40 45 51 57 66 75 87 99 108 114 117 118 119 120
346 346 347 348 349 349 350 350 350 351 352 352 353 353 352 351 350 350 351 352 354 358 1 0 354 350 349 349 350 352 354 357 0 3 4 5 4 3 2 2 4 10 17 20 15 5 354 350 355 2 8 13 17 21 24 27 30 34 39 44 50 57 65 76 87 98 106 111 112
344 345 345 346 347 347 348 348 348 349 350 350 350 351 351 351 351 350 351 352 356 0 4 3 357 352 350 350 352 354 356 357 359 1 3 5 5 5 4 4 4 5 9 13 12 8 358 351 351 357 3 8 12 15 18 20 22 23 25 28 31 33 36 40 45 54 67 81 93
343 343 344 344 345 345 346 346 347 348 348 348 348 348 349 351 351 351 351 351 355 0 5 6 1 356 352 352 353 355 357 358 358 359 1 3 4 5 5 5 5 4 3 4 4 4 360 354 353 357 2 7 11 14 16 18 19 19 19 20 21 21 22 22 22 22 24 27 33
341 341 342 343 343 344 344 344 345 346 346 346 346 346 347 349 351 352 351 350 351 355 0 4 4 0 356 353 353 355 357 358 358 358 359 1 3 4 5 5 5 3 1 359 358 358 358 357 357 360 4 9 13 16 17 18 18 18 18 18 18 18 18 17 15 13 11 8 6
340 340 341 342 342 342 342 342 343 344 345 345 345 345 345 347 349 350 351 349 346 347 351 358 2 3 359 354 352 353 356 357 358 358 359 1 3 4 5 6 6 5 4 359 354 355 359 359 359 2 7 12 16 18 18 18 17 18 18 19 19 19 19 19 19 18 14 10 8
340 340 341 342 342 341 341 341 342 343 344 345 345 345 345 345 346 347 349 349 346 343 344 349 355 359 359 355 352 352 353 355 356 358 360 2 4 6 7 8 11 14 13 7 1 3 10 4 2 4 9 13 17 18 18 17 18 19 20 21 22 23 24 26 29 31 30 27 26
341 341 342 342 342 340 340 341 343 344 345 345 346 346 346 345 344 344 346 349 348 346 343 344 348 352 355 353 351 350 352 353 354 356 359 3 6 8 9 13 19 24 24 19 23 30 20 10 8 9 11 14 16 16 16 16 17 20 23 25 27 29 31 36 44 50 53 52 54
343 343 344 343 342 340 341 343 345 347 347 347 347 347 347 346 345 344 345 347 348 348 345 343 343 346 348 349 348 349 350 352 353 355 358 3 6 9 12 17 25 31 33 32 39 32 17 13 13 13 14 14 15 14 14 14 17 21 24 28 31 34 39 47 58 68 73 75 81
346 347 346 345 342 342 343 347 350 350 349 348 348 347 347 347 346 345 344 344 346 347 346 344 343 343 344 344 346 349 351 352 353 355 358 1 4 7 11 19 27 34 36 33 26 14 10 12 14 15 16 16 16 17 16 16 18 22 25 30 34 38 45 54 68 80 88 92 97
351 350 349 346 344 345 349 353 353 352 350 349 348 348 348 347 347 346 345 344 344 345 346 346 345 344 344 345 347 351 353 355 355 356 357 358 360 1 4 13 25 32 34 28 19 9 8 11 14 16 17 18 20 22 22 21 21 23 26 30 34 40 47 58 72 86 94 94 91
354 353 350 348 348 351 355 357 354 351 348 348 347 347 347 347 347 347 346 344 344 344 345 347 346 346 347 349 353 356 357 356 356 355 355 354 355 355 354 357 13 27 31 29 24 17 13 14 17 19 21 23 26 27 28 26 25 25 27 31 34 39 46 58 71 82 84 75 60
356 354 352 352 353 356 358 357 353 349 346 346 345 345 346 346 347 347 347 345 344 344 344 345 346 347 348 351 357 1 360 356 354 353 352 350 351 350 346 344 355 16 28 29 26 23 20 19 22 24 25 26 28 30 31 30 29 30 31 33 35 38 43 53 64 71 70 64 52
356 354 354 355 357 359 359 356 351 347 344 344 343 343 344 345 346 347 347 346 344 343 343 344 346 346 348 352 1 6 4 356 353 351 350 348 347 345 342 339 341 358 19 25 22 19 19 22 26 26 24 22 24 28 32 32 31 32 34 36 37 38 40 45 51 55 56 55 51
354 354 355 357 0 1 359 354 348 344 342 342 342 342 343 344 345 345 346 345 344 344 344 345 346 345 347 353 5 12 8 358 354 352 350 347 344 341 339 337 337 342 358 15 18 17 15 17 24 23 18 13 13 21 31 34 33 34 37 39 39 39 39 39 37 35 33 36 40
354 353 354 357 2 3 359 351 344 341 341 341 341 342 342 342 343 345 345 345 344 345 347 349 348 346 345 351 6 14 12 3 359 357 354 350 345 341 339 337 336 335 339 354 10 15 15 13 14 14 10 5 3 9 23 36 38 40 42 42 43 43 43 42 41 36 28 21 27
Height
1485 1483 1481 1479 1477 1475 1473 1472 1470 1468 1466 1464 1462 1460 1458 1456 1454 1452 1450 1448 1447 1444 1442 1439 1437 1435 1433 1431 1429 1427 1426 1424 1422 1421 1419 1418 1417 1416 1415 1414 1413 1412 1412 1411 1411 1411 1410 1410 1410 1410 1410 1410 1410 1409 1409 1410 1411 1411 1412 1413 1413 1413 1412 1412 1413 1414 1415 1417 1418
1484 1483 1481 1479 1477 1475 1473 1471 1469 1467 1466 1464 1462 1460 1458 1456 1454 1452 1449 1448 1446 1444 1442 1439 1436 1434 1432 1430 1428 1426 1424 1422 1420 1419 1417 1416 1415 1414 1412 1412 1410 1410 1409 1409 1408 1408 1408 1408 1408 1408 1407 1408 1408 1407 1407 1407 1408 1409 1410 1411 1412 1411 1410 1410 1411 1412 1413 1415 1416
1484 1482 1480 1478 1477 1475 1472 1471 1469 1467 1465 1463 1461 1459 1457 1456 1454 1452 1449 1447 1445 1443 1441 1438 1435 1433 1431 1428 1427 1425 1423 1421 1419 1417 1415 1414 1412 1412 1411 1409 1408 1407 1407 1407 1406 1406 1406 1406 1406 1406 1405 1406 1406 1405 1405 1405 1406 1407 1407 1408 1409 1409 1408 1408 1408 1409 1411 1412 1414
1483 1482 1480 1478 1476 1474 1472 1471 1468 1467 1464 1462 1461 1459 1457 1455 1453 1452 1449 1447 1444 1442 1440 1437 1434 1432 1430 1428 1426 1424 1422 1420 1418 1416 1414 1412 1411 1409 1408 1407 1406 1405 1404 1404 1404 1403 1403 1403 1403 1403 1403 1403 1403 1403 1403 1403 1404 1405 1405 1406 1407 1407 1405 1405 1406 1407 1409 1411 1412
1483 1481 1480 1478 1476 1474 1472 1471 1468 1466 1464 1462 1460 1458 1457 1455 1453 1451 1448 1446 1443 1441 1439 1437 1434 1432 1429 1427 1425 1422 1421 1419 1417 1415 1412 1410 1409 1407 1406 1405 1404 1403 1402 1402 1402 1401 1401 1401 1401 1401 1401 1401 1401 1401 1400 1400 1401 1402 1403 1405 1405 1404 1403 1403 1404 1406 1407 1409 1410
1482 1481 1479 1477 1476 1474 1472 1470 1468 1466 1464 1462 1460 1458 1457 1455 1453 1451 1448 1446 1443 1440 1438 1435 1433 1431 1428 1426 1423 1421 1419 1417 1415 1413 1411 1409 1407 1406 1404 1403 1402 1401 1400 1400 1399 1399 1399 1399 1399 1399 1399 1399 1399 1399 1398 1398 1399 1400 1401 1403 1402 1402 1402 1402 1403 1404 1406 1407 1409
1483 1481 1479 1477 1476 1474 1472 1470 1468 1466 1464 1462 1460 1458 1456 1454 1452 1450 1448 1445 1442 1439 1437 1435 1432 1430 1427 1425 1422 1420 1418 1416 1414 1412 1410 1407 1406 1404 1402 1401 1400 1399 1398 1398 1397 1397 1397 1397 1397 1397 1397 1397 1397 1397 1396 1395 1397 1398 1399 1400 1401 1400 1400 1400 1401 1403 1404 1406 1407
1483 1481 1479 1477 1475 1473 1471 1469 1467 1466 1464 1462 1460 1458 1456 1454 1452 1449 1447 1444 1442 1439 1437 1434 1432 1429 1427 1424 1422 1419 1417 1415 1412 1410 1408 1406 1404 1402 1401 1399 1398 1397 1396 1396 1396 1396 1395 1396 1395 1395 1395 1395 1396 1395 1394 1394 1395 1396 1396 1397 1399 1399 1399 1399 1400 1401 1403 1404 1406
1482 1480 1478 1477 1475 1473 1471 1469 1467 1465 1463 1462 1460 1458 1456 1453 1451 1449 1446 1443 1441 1439 1436 1433 1431 1428 1426 1424 1421 1419 1416 1414 1412 1409 1407 1405 1403 1401 1399 1398 1396 1395 1394 1394 1394 1394 1394 1394 1393 1393 1393 1394 1394 1394 1393 1393 1393 1394 1394 1394 1397 1397 1398 1398 1398 1399 1401 1402 1404
1482 1480 1478 1476 1474 1472 1470 1468 1467 1465 1463 1461 1459 1457 1455 1453 1451 1449 1446 1444 1441 1438 1436 1433 1430 1427 1425 1423 1421 1418 1416 1414 1411 1409 1407 1404 1402 1400 1398 1396 1395 1394 1393 1392 1392 1392 1392 1392 1392 1392 1392 1392 1393 1393 1393 1393 1393 1392 1392 1392 1392 1394 1396 1397 1397 1398 1399 1401 1402
1482 1479 1477 1476 1474 1472 1470 1468 1466 1464 1462 1460 1458 1456 1454 1453 1451 1448 1446 1444 1441 1438 1436 1433 1430 1427 1425 1422 1420 1418 1416 1413 1411 1409 1406 1403 1401 1399 1397 1395 1393 1392 1392 1391 1391 1391 1391 1391 1391 1391 1391 1391 1392 1392 1392 1392 1393 1392 1391 1391 1391 1392 1394 1396 1396 1397 1397 1399 1401
1481 1479 1477 1475 1473 1471 1469 1467 1465 1463 1462 1460 1458 1456 1454 1452 1450 1448 1446 1443 1441 1438 1436 1433 1430 1428 1425 1422 1420 1418 1416 1413 1411 1408 1405 1402 1400 1397 1395 1393 1392 1391 1390 1390 1390 1390 1390 1389 1389 1389 1390 1390 1391 1392 1392 1392 1392 1392 1392 1391 1391 1392 1393 1394 1395 1396 1396 1397 1399
1481 1479 1477 1475 1473 1471 1469 1467 1465 1463 1461 1459 1457 1455 1453 1452 1450 1448 1445 1443 1441 1438 1436 1433 1431 1428 1425 1423 1420 1418 1416 1413 1411 1408 1405 1402 1399 1396 1394 1392 1391 1390 1389 1390 1390 1390 1389 1388 1388 1388 1389 1389 1390 1391 1391 1390 1391 1392 1392 1392 1391 1392 1393 1394 1395 1395 1395 1396 1397
1481 1479 1477 1475 1472 1470 1468 1466 1464 1463 1461 1459 1457 1455 1453 1452 1450 1448 1446 1443 1441 1439 1437 1434 1432 1429 1426 1423 1421 1418 1416 1413 1411 1408 1405 1402 1399 1396 1393 1391 1390 1389 1389 1389 1390 1389 1388 1388 1387 1387 1388 1388 1389 1389 1390 1389 1390 1390 1391 1392 1392 1393 1393 1394 1394 1394 1395 1395 1397
1480 1478 1476 1474 1472 1470 1468 1466 1464 1462 1460 1458 1457 1455 1453 1452 1450 1448 1446 1443 1441 1439 1437 1435 1432 1430 1427 1425 1422 1419 1416 1413 1411 1408 1405 1402 1399 1396 1393 1391 1389 1389 1389 1389 1389 1388 1388 1387 1387 1387 1387 1387 1387 1388 1388 1388 1389 1390 1390 1391 1392 1393 1393 1394 1394 1395 1395 1396 1396
1480 1478 1476 1474 1472 1470 1468 1466 1464 1462 1460 1458 1457 1455 1453 1451 1450 1448 1446 1444 1441 1439 1437 1435 1433 1430 1428 1425 1422 1419 1416 1413 1411 1408 1406 1403 1400 1397 1394 1392 1390 1389 1388 1389 1388 1388 1387 1387 1387 1387 1387 1387 1387 1386 1386 1387 1388 1389 1390 1391 1392 1393 1393 1394 1394 1395 1395 1395 1396
1480 1477 1476 1474 1472 1470 1468 1466 1464 1462 1460 1458 1457 1455 1453 1451 1449 1448 1446 1444 1442 1439 1437 1435 1433 1431 1428 1426 1423 1421 1417 1414 1412 1409 1407 1404 1402 1399 1396 1394 1392 1389 1388 1387 1387 1387 1387 1387 1387 1387 1387 1387 1387 1387 1387 1387 1388 1389 1389 1390 1391 1392 1393 1394 1394 1395 1395 1395 1396
1479 1477 1475 1473 1471 1469 1467 1466 1464 1462 1460 1458 1456 1455 1453 1451 1449 1448 1446 1444 1442 1439 1437 1435 1433 1431 1429 1427 1424 1422 1419 1416 1413 1410 1408 1406 1404 1401 1399 1396 1394 1391 1389 1387 1387 1386 1386 1386 1387 1387 1387 1387 1387 1388 1388 1388 1388 1389 1389 1390 1391 1392 1392 1393 1394 1394 1395 1395 1395
1479 1477 1475 1473 1471 1469 1467 1465 1463 1461 1459 1457 1456 1454 1452 1451 1449 1447 1445 1443 1442 1439 1437 1435 1433 1431 1429 1427 1425 1423 1420 1417 1415 1412 1409 1407 1405 1403 1401 1399 1397 1394 1391 1389 1387 1387 1386 1386 1386 1386 1386 1387 1387 1388 1388 1388 1388 1388 1389 1389 1390 1391 1392 1393 1393 1394 1394 1394 1395
1479 1477 1475 1473 1471 1469 1467 1465 1463 1461 1459 1457 1456 1454 1452 1450 1449 1447 1445 1443 1441 1439 1437 1436 1433 1431 1429 1427 1425 1423 1421 1419 1417 1414 1411 1409 1407 1405 1403 1402 1399 1397 1394 1392 1390 1388 1387 1387 1386 1386 1386 1387 1387 1388 1388 1388 1388 1388 1389 1389 1390 1391 1392 1392 1393 1393 1394 1394 1394
1479 1477 1475 1473 1471 1469 1467 1465 1463 1461 1459 1457 1455 1453 1452 1450 1448 1447 1445 1443 1441 1439 1437 1436 1433 1431 1429 1427 1425 1423 1422 1420 1418 1415 1413 1410 1408 1406 1405 1404 1402 1400 1397 1395 1393 1392 1390 1389 1388 1387 1387 1387 1387 1388 1388 1388 1388 1388 1388 1388 1389 1389 1390 1391 1392 1392 1392 1392 1392
1479 1477 1475 1473 1471 1469 1467 1465 1463 1461 1459 1457 1455 1453 1452 1450 1448 1447 1445 1443 1441 1439 1437 1436 1434 1432 1430 1427 1426 1424 1422 1421 1419 1417 1414 1412 1410 1408 1406 1405 1404 1402 1400 1398 1397 1395 1393 1392 1391 1390 1389 1389 1388 1388 1388 1388 1388 1388 1387 1387 1388 1388 1389 1389 1390 1391 1391 1391 1391
1479 1477 1475 1473 1471 1469 1467 1465 1463 1461 1459 1457 1455 1453 1451 1449 1448 1446 1445 1443 1441 1439 1437 1436 1434 1432 1430 1428 1426 1424 1422 1421 1419 1417 1415 1413 1411 1409 1407 1406 1406 1404 1402 1400 1399 1397 1396 1395 1394 1392 1392 1391 1390 1390 1390 1389 1389 1388 1388 1387 1387 1388 1388 1389 1389 1390 1390 1389 1390
1479 1477 1475 1473 1471 1469 1467 1465 1463 1461 1459 1457 1455 1453 1451 1449 1447 1446 1444 1443 1441 1439 1437 1436 1434 1432 1430 1428 1427 1425 1423 1421 1419 1418 1416 1414 1412 1410 1408 1407 1406 1406 1405 1402 1400 1399 1398 1397 1396 1395 1394 1393 1392 1392 1391 1390 1390 1389 1389 1388 1388 1388 1388 1389 1389 1389 1389 1389 1389
1478 1477 1475 1472 1471 1468 1467 1465 1462 1460 1458 1457 1455 1453 1451 1449 1447 1446 1444 1443 1441 1439 1437 1436 1434 1432 1430 1429 1427 1425 1424 1422 1420 1418 1417 1415 1413 1412 1410 1408 1407 1407 1407 1406 1403 1401 1400 1399 1398 1397 1396 1395 1394 1393 1392 1391 1391 1390 1390 1389 1389 1389 1389 1389 1389 1389 1389 1389 1390
1478 1476 1474 1472 1470 1468 1466 1464 1462 1460 1458 1457 1454 1452 1451 1449 1447 1446 1444 1442 1441 1439 1437 1436 1434 1432 1430 1429 1427 1425 1424 1422 1421 1419 1417 1415 1414 1412 1411 1410 1408 1407 1407 1408 1406 1402 1400 1400 1399 1398 1397 1396 1395 1394 1393 1392 1392 1391 1391 1390 1390 1390 1390 1390 1389 1389 1390 1390 1390
1477 1476 1474 1472 1470 1468 1466 1464 1462 1460 1458 1456 1454 1452 1451 1449 1447 1446 1444 1442 1441 1438 1437 1436 1434 1432 1431 1429 1427 1426 1424 1422 1421 1419 1418 1416 1414 1413 1412 1411 1410 1408 1407 1407 1407 1405 1401 1400 1399 1399 1398 1397 1396 1395 1394 1394 1393 1392 1392 1392 1391 1391 1391 1391 1391 1391 1391 1391 1391
1477 1475 1473 1472 1469 1467 1466 1464 1462 1460 1458 1456 1454 1452 1451 1449 1447 1446 1444 1442 1441 1439 1437 1435 1434 1433 1431 1429 1427 1426 1424 1423 1421 1420 1418 1417 1415 1414 1412 1411 1409 1409 1408 1406 1408 1407 1403 1400 1400 1399 1399 1398 1397 1396 1395 1395 1394 1393 1393 1392 1392 1392 1392 1392 1392 1392 1392 1392 1392
1477 1475 1473 1471 1469 1467 1465 1463 1461 1459 1457 1456 1454 1452 1451 1449 1447 1446 1444 1442 1440 1439 1437 1435 1435 1433 1432 1430 1428 1426 1425 1423 1422 1420 1419 1417 1416 1414 1412 1411 1410 1409 1407 1407 1408 1407 1404 1401 1400 1400 1399 1398 1398 1397 1396 1395 1395 1394 1393 1393 1393 1392 1392 1392 1392 1392 1392 1392 1392
1477 1474 1472 1471 1469 1467 1465 1463 1461 1459 1457 1456 1454 1452 1450 1448 1447 1445 1444 1442 1440 1439 1437 1436 1435 1433 1432 1430 1428 1427 1425 1423 1422 1420 1419 1418 1416 1415 1413 1411 1410 1409 1407 1407 1407 1407 1404 1402 1401 1400 1400 1399 1398 1397 1397 1396 1395 1395 1394 1393 1393 1393 1393 1393 1393 1393 1393 1393 1393
1476 1474 1472 1470 1468 1466 1464 1463 1461 1459 1457 1456 1454 1452 1450 1448 1447 1445 1444 1442 1441 1439 1437 1436 1434 1433 1432 1431 1429 1427 1425 1424 1422 1421 1419 1418 1417 1415 1413 1412 1410 1409 1408 1407 1407 1406 1404 1402 1401 1401 1400 1400 1399 1398 1397 1397 1396 1395 1395 1394 1394 1393 1393 1393 1393 1393 1393 1393 1393
1475 1473 1472 1469 1467 1466 1464 1462 1461 1459 1457 1455 1453 1452 1450 1448 1447 1445 1444 1442 1441 1439 1437 1436 1434 1433 1432 1430 1429 1427 1426 1424 1422 1421 1420 1418 1417 1416 1414 1412 1411 1409 1408 1407 1407 1406 1404 1402 1402 1401 1401 1400 1399 1398 1398 1397 1397 1396 1395 1395 1394 1394 1394 1394 1394 1394 1394 1394 1394
1475 1473 1471 1469 1467 1465 1463 1462 1460 1459 1457 1455 1453 1452 1450 1448 1446 1445 1443 1442 1441 1439 1437 1436 1434 1433 1432 1430 1429 1427 1426 1425 1423 1422 1421 1419 1418 1416 1415 1413 1412 1410 1409 1410 1407 1405 1403 1402 1402 1402 1401 1400 1399 1399 1398 1397 1397 1396 1396 1395 1395 1395 1394 1394 1394 1394 1395 1395 1395
1474 1472 1470 1468 1467 1465 1463 1462 1460 1458 1457 1455 1453 1451 1450 1448 1446 1444 1443 1442 1440 1439 1437 1436 1435 1433 1432 1431 1429 1428 1427 1425 1424 1422 1421 1420 1418 1417 1416 1414 1412 1410 1410 1412 1408 1405 1404 1404 1403 1402 1402 1401 1400 1399 1398 1398 1397 1397 1396 1396 1395 1395 1395 1395 1395 1395 1395 1396 1396
1473 1471 1469 1468 1466 1465 1463 1462 1460 1458 1456 1454 1452 1451 1449 1448 1446 1444 1442 1441 1440 1439 1437 1436 1435 1434 1432 1431 1429 1428 1427 1426 1424 1423 1422 1420 1419 1417 1416 1415 1413 1411 1411 1413 1409 1407 1406 1405 1404 1403 1402 1402 1401 1400 1399 1398 1398 1397 1397 1397 1396 1396 1396 1396 1396 1396 1396 1397 1397
1473 1471 1469 1467 1466 1464 1463 1462 1460 1458 1456 1454 1452 1451 1449 1447 1446 1444 1442 1441 1440 1438 1437 1436 1435 1433 1432 1431 1429 1428 1427 1426 1425 1423 1422 1421 1419 1418 1416 1415 1414 1412 1412 1413 1411 1408 1407 1406 1405 1404 1403 1402 1402 1401 1400 1399 1399 1398 1398 1397 1397 1397 1397 1397 1397 1397 1397 1397 1397
1473 1471 1469 1468 1466 1465 1463 1462 1460 1458 1456 1454 1452 1451 1449 1447 1446 1444 1442 1441 1439 1438 1437 1436 1434 1433 1432 1431 1429 1428 1427 1426 1425 1424 1422 1421 1420 1418 1417 1415 1415 1413 1412 1412 1412 1410 1408 1407 1406 1405 1404 1403 1402 1402 1401 1400 1400 1399 1399 1398 1398 1398 1398 1398 1398 1398 1398 1398 1398
1473 1472 1470 1468 1467 1465 1463 1462 1460 1458 1456 1454 1452 1451 1449 1447 1446 1444 1442 1441 1439 1438 1436 1435 1434 1433 1432 1431 1430 1428 1427 1426 1425 1424 1423 1422 1420 1419 1417 1416 1415 1414 1413 1412 1413 1412 1409 1408 1407 1407 1406 1405 1404 1403 1402 1402 1401 1401 1400 1400 1399 1399 1399 1399 1399 1399 1399 1399 1399
1473 1472 1470 1469 1467 1465 1463 1462 1460 1458 1456 1454 1452 1451 1449 1447 1446 1444 1442 1441 1440 1438 1437 1435 1434 1433 1432 1431 1430 1428 1427 1426 1425 1424 1423 1422 1421 1420 1418 1417 1416 1415 1413 1412 1413 1412 1411 1409 1408 1408 1407 1406 1405 1404 1403 1403 1402 1402 1402 1401 1401 1401 1400 1400 1400 1400 1400 1400 1401
1474 1472 1471 1469 1467 1465 1464 1462 1461 1458 1457 1455 1452 1451 1449 1447 1446 1444 1443 1441 1440 1438 1437 1436 1434 1433 1432 1431 1430 1429 1427 1427 1426 1425 1423 1422 1422 1420 1419 1417 1416 1415 1414 1413 1412 1413 1412 1410 1409 1408 1408 1407 1406 1405 1404 1404 1403 1403 1402 1402 1402 1402 1401 1401 1401 1401 1401 1402 1402
1474 1472 1471 1469 1467 1466 1464 1462 1460 1458 1456 1454 1452 1451 1449 1447 1446 1444 1442 1441 1440 1438 1437 1436 1434 1433 1432 1431 1430 1429 1428 1427 1426 1425 1424 1423 1422 1421 1419 1418 1417 1415 1414 1413 1412 1412 1412 1412 1410 1409 1408 1407 1406 1406 1405 1404 1404 1404 1403 1403 1402 1402 1402 1402 1402 1402 1402 1402 1402